Weather History for Okeechobee, FL

Change the Weather History Date:

Saturday, September 21, 2013

  Actual Average Record
Temperature  
Mean Temperature 75 °F -  
Max Temperature 86 °F 89 °F 96 °F (2008)
Min Temperature 64 °F 72 °F 64 °F (2013)
Cooling Degree Days 10    
Growing Degree Days 25 (Base 50)    
Moisture  
Dew Point 67 °F    
Average Humidity 79    
Maximum Humidity 100    
Minimum Humidity 43    
Precipitation  
Precipitation 0.00 in - - ()
Sea Level Pressure  
Sea Level Pressure 29.87 in    
Wind  
Wind Speed 1 mph (SSE)    
Max Wind Speed 9 mph    
Max Gust Speed -    
Visibility 10 miles    
Events      
Averages and records for this station are not official NWS values.
T = Trace of Precipitation, MM = Missing Value Source: NWS Daily Summary

Daily Weather History Graph

Daily Weather History Graph

Search for Another Location

Airport:

Trip Planner

Search our weather history database for the weather conditions in past years. The results will help you decide how hot, cold, wet, or windy it might be!

Date:

Astronomy

Sep. 21, 2013 Rise Set
Actual Time 7:11 AM EDT 7:20 PM EDT
Civil Twilight 6:48 AM EDT 7:43 PM EDT
Nautical Twilight 6:21 AM EDT 8:11 PM EDT
Astronomical Twilight 5:53 AM EDT 8:38 PM EDT
Moon 8:48 PM EDT 9:12 AM EDT
Length of Visible Light 12h 55m
Length of Day
12h 09m
Waning Gibbous, 94% of the Moon is Illuminated
Sep 21
Waning Gibbous
Sep 26
Last Quarter
Oct 4
New
Oct 11
First Quarter
Oct 18
Full

Hourly Weather History & Observations

Time (EDT) Temp. Heat Index Dew Point Humidity Pressure Visibility Wind Dir Wind Speed Gust Speed Precip Events Conditions
12:15 AM 69.8 °F - 68.0 °F 94% 29.96 in 10.0 mi Calm Calm - N/A   Clear
12:35 AM 68.0 °F - 68.0 °F 100% 29.95 in 10.0 mi Calm Calm - N/A   Clear
12:55 AM 68.0 °F - 68.0 °F 100% 29.96 in 10.0 mi Calm Calm - N/A   Clear
1:15 AM 68.0 °F - 68.0 °F 100% 29.95 in 10.0 mi Calm Calm - N/A   Clear
1:35 AM 68.0 °F - 68.0 °F 100% 29.95 in 10.0 mi Calm Calm - N/A   Clear
1:55 AM 68.0 °F - 66.2 °F 94% 29.94 in 10.0 mi Calm Calm - N/A   Clear
2:15 AM 68.0 °F - 68.0 °F 100% 29.93 in 10.0 mi Calm Calm - N/A   Clear
2:35 AM 68.0 °F - 68.0 °F 100% 29.93 in 10.0 mi Calm Calm - N/A   Clear
2:55 AM 68.0 °F - 68.0 °F 100% 29.91 in 10.0 mi Calm Calm - N/A   Clear
3:15 AM 68.0 °F - 68.0 °F 100% 29.91 in 7.0 mi Calm Calm - N/A   Clear
3:35 AM 66.2 °F - 66.2 °F 100% 29.91 in 10.0 mi NNE 4.6 mph - N/A   Clear
3:55 AM 66.2 °F - 66.2 °F 100% 29.90 in 10.0 mi Calm Calm - N/A   Clear
4:15 AM 66.2 °F - 66.2 °F 100% 29.90 in 10.0 mi Calm Calm - N/A   Clear
4:35 AM 66.2 °F - 66.2 °F 100% 29.90 in 10.0 mi Calm Calm - N/A   Clear
4:55 AM 66.2 °F - 66.2 °F 100% 29.89 in 10.0 mi Calm Calm - N/A   Clear
5:15 AM 66.2 °F - 66.2 °F 100% 29.89 in 10.0 mi Calm Calm - N/A   Clear
5:35 AM 64.4 °F - 64.4 °F 100% 29.89 in 10.0 mi Calm Calm - N/A   Clear
5:55 AM 64.4 °F - 64.4 °F 100% 29.89 in 7.0 mi Calm Calm - N/A   Clear
6:15 AM 64.4 °F - 64.4 °F 100% 29.89 in 10.0 mi Calm Calm - N/A   Clear
6:35 AM 64.4 °F - 64.4 °F 100% 29.89 in 10.0 mi Calm Calm - N/A   Scattered Clouds
6:55 AM 64.4 °F - 64.4 °F 100% 29.89 in 10.0 mi Calm Calm - N/A   Scattered Clouds
7:15 AM 64.4 °F - 64.4 °F 100% 29.89 in 7.0 mi Calm Calm - N/A   Clear
7:35 AM 64.4 °F - 64.4 °F 100% 29.89 in 10.0 mi Calm Calm - N/A   Clear
7:55 AM 68.0 °F - 68.0 °F 100% 29.90 in 10.0 mi Calm Calm - N/A   Clear
8:15 AM 69.8 °F - 69.8 °F 100% 29.90 in 10.0 mi Calm Calm - N/A   Clear
8:35 AM 71.6 °F - 69.8 °F 94% 29.91 in 10.0 mi Calm Calm - N/A   Clear
8:55 AM 73.4 °F - 71.6 °F 94% 29.91 in 10.0 mi Calm Calm - N/A   Clear
9:15 AM 77.0 °F - 71.6 °F 83% 29.91 in 10.0 mi Calm Calm - N/A   Clear
9:35 AM 78.8 °F - 69.8 °F 74% 29.91 in 10.0 mi Calm Calm - N/A   Clear
9:55 AM 78.8 °F - 68.0 °F 69% 29.91 in 10.0 mi Calm Calm - N/A   Clear
10:15 AM 80.6 °F 83.2 °F 68.0 °F 65% 29.92 in 10.0 mi Calm Calm - N/A   Clear
10:35 AM 80.6 °F 83.9 °F 69.8 °F 70% 29.92 in 10.0 mi Calm Calm - N/A   Clear
10:55 AM 80.6 °F 83.2 °F 68.0 °F 65% 29.92 in 10.0 mi Calm Calm - N/A   Clear
11:15 AM 80.6 °F 83.9 °F 69.8 °F 70% 29.91 in 10.0 mi SE 4.6 mph - N/A   Clear
11:35 AM 82.4 °F 86.3 °F 69.8 °F 66% 29.90 in 10.0 mi ESE 4.6 mph - N/A   Clear
11:55 AM 82.4 °F 86.3 °F 69.8 °F 66% 29.90 in 10.0 mi East 3.5 mph - N/A   Clear
12:15 PM 82.4 °F 85.4 °F 68.0 °F 62% 29.89 in 10.0 mi SE 4.6 mph - N/A   Scattered Clouds
12:35 PM 84.2 °F 87.3 °F 68.0 °F 58% 29.89 in 10.0 mi ESE 3.5 mph - N/A   Scattered Clouds
12:55 PM 82.4 °F 83.9 °F 64.4 °F 54% 29.89 in 10.0 mi ESE 3.5 mph - N/A   Clear
1:15 PM 82.4 °F 85.4 °F 68.0 °F 62% 29.89 in 10.0 mi Calm Calm - N/A   Scattered Clouds
1:35 PM 86.0 °F 90.4 °F 69.8 °F 58% 29.87 in 10.0 mi South 8.1 mph - N/A   Mostly Cloudy
1:55 PM 84.2 °F 88.4 °F 69.8 °F 62% 29.87 in 10.0 mi SW 8.1 mph - N/A   Scattered Clouds
2:15 PM 84.2 °F 87.3 °F 68.0 °F 58% 29.86 in 10.0 mi South 5.8 mph - N/A   Scattered Clouds
2:35 PM 86.0 °F 89.4 °F 68.0 °F 55% 29.85 in 10.0 mi WSW 4.6 mph - N/A   Scattered Clouds
2:55 PM 86.0 °F 89.4 °F 68.0 °F 55% 29.85 in 10.0 mi South 9.2 mph - N/A   Scattered Clouds
3:15 PM 86.0 °F 89.4 °F 68.0 °F 55% 29.84 in 10.0 mi SSW 4.6 mph - N/A   Scattered Clouds
3:35 PM 86.0 °F 88.2 °F 66.2 °F 51% 29.83 in 10.0 mi SW 8.1 mph - N/A   Clear
3:55 PM 86.0 °F 88.2 °F 66.2 °F 51% 29.82 in 10.0 mi SW 4.6 mph - N/A   Clear
4:15 PM 86.0 °F 87.3 °F 64.4 °F 48% 29.81 in 10.0 mi South 5.8 mph - N/A   Clear
4:35 PM 86.0 °F 86.6 °F 62.6 °F 45% 29.81 in 10.0 mi Calm Calm - N/A   Clear
4:55 PM 86.0 °F 87.3 °F 64.4 °F 48% 29.80 in 10.0 mi SSW 5.8 mph - N/A   Clear
5:15 PM 86.0 °F 87.3 °F 64.4 °F 48% 29.80 in 10.0 mi SSE 4.6 mph - N/A   Clear
5:35 PM 86.0 °F 86.6 °F 62.6 °F 45% 29.80 in 10.0 mi SSE 3.5 mph - N/A   Clear
5:55 PM 86.0 °F 86.1 °F 60.8 °F 43% 29.79 in 10.0 mi Calm Calm - N/A   Clear
6:15 PM 86.0 °F 86.1 °F 60.8 °F 43% 29.80 in 10.0 mi Calm Calm - N/A   Clear
6:35 PM 84.2 °F 84.4 °F 60.8 °F 45% 29.80 in 10.0 mi South 3.5 mph - N/A   Clear
6:55 PM 80.6 °F 82.3 °F 64.4 °F 58% 29.80 in 10.0 mi Calm Calm - N/A   Clear
7:15 PM 78.8 °F - 62.6 °F 57% 29.80 in 10.0 mi ESE 3.5 mph - N/A   Clear
7:35 PM 77.0 °F - 64.4 °F 65% 29.81 in 10.0 mi Calm Calm - N/A   Clear
7:55 PM 73.4 °F - 64.4 °F 73% 29.81 in 10.0 mi Calm Calm - N/A   Clear
8:15 PM 73.4 °F - 68.0 °F 83% 29.81 in 10.0 mi ESE 4.6 mph - N/A   Clear
8:35 PM 73.4 °F - 68.0 °F 83% 29.82 in 10.0 mi ESE 3.5 mph - N/A   Clear
8:55 PM 73.4 °F - 68.0 °F 83% 29.83 in 10.0 mi SE 3.5 mph - N/A   Clear
9:15 PM 73.4 °F - 68.0 °F 83% 29.83 in 10.0 mi ESE 4.6 mph - N/A   Clear
9:35 PM 71.6 °F - 69.8 °F 94% 29.83 in 10.0 mi SE 4.6 mph - N/A   Clear
9:55 PM 71.6 °F - 69.8 °F 94% 29.84 in 10.0 mi ESE 3.5 mph - N/A   Clear
10:15 PM 71.6 °F - 69.8 °F 94% 29.84 in 10.0 mi SE 3.5 mph - N/A   Clear
10:35 PM 73.4 °F - 69.8 °F 88% 29.84 in 10.0 mi SE 4.6 mph - N/A   Clear
10:55 PM 71.6 °F - 69.8 °F 94% 29.85 in 10.0 mi ESE 3.5 mph - N/A   Clear
11:15 PM 71.6 °F - 69.8 °F 94% 29.85 in 10.0 mi ESE 4.6 mph - N/A   Clear
11:35 PM 71.6 °F - 69.8 °F 94% 29.85 in 10.0 mi SE 3.5 mph - N/A   Clear
11:55 PM 73.4 °F - 69.8 °F 88% 29.85 in 10.0 mi SE 4.6 mph - N/A   Clear